Regional Weather Roundup
Issued by NWS Sioux Falls, SD

Home | Current Version | Previous Version | Graphics & Text | Print | Product List | Glossary On
Versions: 1 2 3 4 5 6 7 8 9 10 11 12 13 14 15 16 17 18 19 20 21 22 23 24 25 26 27 28 29 30 31 32 33 34 35 36 37 38 39 40 41 42 43 44 45 46 47 48 49 50
000
ASUS43 KFSD 261702
RWRFSD

WEATHER ROUNDUP FOR SE SOUTH DAKOTA/SW MINNESOTA/NW IOWA
NATIONAL WEATHER SERVICE SIOUX FALLS SD
1200 PM CDT THU MAR 26 2015

NOTE: "FAIR" INDICATES FEW OR NO CLOUDS BELOW 12,000 FEET WITH NO
SIGNIFICANT WEATHER AND OR OBSTRUCTIONS TO VISIBILITY.


SDZ038>040-050-052>070-261800-
SOUTHEAST SOUTH DAKOTA

CITY           SKY/WX    TMP DP  RH WIND       PRES   REMARKS
CHAMBERLAIN    NOT AVBL
HURON          CLOUDY    33  24  69 N3        30.20S
MADISON        FAIR      34  25  69 N10G17    30.17S WCI  26
MITCHELL       CLOUDY    35  24  64 CALM      30.21S
SIOUX FALLS    CLOUDY    39  23  52 N12       30.17F
WINNER         LGT SNOW  34  29  82 E12       30.12F VSB 3/4 WCI  25
YANKTON        PTSUNNY   37  19  48 W5        30.20F
$$

MNZ071-072-080-081-089-090-097-098-261800-
SOUTHWEST MINNESOTA

CITY           SKY/WX    TMP DP  RH WIND       PRES   REMARKS
FAIRMONT       MOSUNNY   36  19  51 NW17      30.14S
JACKSON        PTSUNNY   36  23  60 NW15G24   30.15F
LUVERNE        CLOUDY    37  25  60 NW10G16   30.17F
MARSHALL       PTSUNNY   32  19  59 N17       30.19S WCI  21
MONTEVIDEO     CLOUDY    34  21  60 N15G21    30.20S WCI  24
PIPESTONE      CLOUDY    34  23  64 N6        30.16S WCI  29
REDWOOD FALLS  SUNNY     33  20  58 N13       30.17F WCI  24
TRACY          CLOUDY    32  24  71 N13       30.18S WCI  23
WINDOM         PTSUNNY   34  21  60 NW15      30.16S WCI  24
WORTHINGTON    CLOUDY    34  19  55 N16       30.16F WCI  23
$$

IAZ001>003-012>014-020>022-031-032-NEZ013-014-SDZ071-261800-
NORTHWEST IOWA

CITY           SKY/WX    TMP DP  RH WIND       PRES   REMARKS
DENISON        MOSUNNY   41  25  52 N10G23    30.16F
ESTHERVILLE    PTSUNNY   35  24  64 NW18      30.15S WCI  24
SIOUX CITY     MOSUNNY   42  22  44 N10       30.20F
SPENCER        CLOUDY    38  24  57 N17       30.16F
$$

ABBREVIATIONS USED IN REMARKS
   TC - TEMPERATURE IN CELSIUS
  WCI - WIND CHILL INDEX
   HX - HEAT INDEX
  VSB - VISIBILITY




USA.gov is the U.S. government's official web portal to all federal, state and local government web resources and services.